#timestamp,LO_Frequency,Hit,StdDev 
1518242415.8,286046999.8,N
1518242435.7,286047002.8,N
1518242455.5,286047002.8,N
1518242475.3,286047000.0,N
1518242495.2,286047002.7,N
1518242515.9,286047002.7,N
1518242535.7,286047002.7,N
1518242555.6,286047002.4,N
1518242575.4,286047002.3,N
1518242595.2,286047002.5,N
1518242615.0,286047002.2,N
1518242616.0,286047002.2,N
1518242635.8,286047002.2,N
1518242655.6,286047002.2,N
1518242675.4,286047002.2,N
1518242695.3,286047002.2,N
1518242715.1,286047001.8,N
1518242735.8,286047002.1,N
1518242755.7,286047002.0,N
1518242775.5,286047002.0,N
1518242795.3,286047001.9,N
1518242815.2,286047001.9,N
1518242835.9,286047004.3,Y
1518242855.7,286047000.2,P
1518242875.6,286047000.1,N
1518242895.4,286047000.3,N
1518242915.2,286047000.4,N
1518242935.1,286046999.8,N
1518242936.0,286046999.8,N
1518242955.8,286046999.8,N
1518242975.6,286046999.7,N
1518242995.4,286046999.9,N
1518243015.3,286047002.7,Y
1518243035.1,286047000.3,P
1518243055.9,286047000.3,P
1518243075.7,286047000.3,P
1518243095.5,286046999.9,N
1518243115.3,286047000.2,N
1518243135.2,286047000.2,N
1518243155.0,286046999.8,N
1518243155.9,286046999.8,N
1518243175.7,286047001.6,Y
1518243195.6,286047002.6,P
1518243215.4,286047002.6,N
1518243235.2,286047002.6,N
1518243255.1,286047001.5,N
1518243256.0,286047001.5,N
1518243275.8,286047001.8,N
1518243295.6,286047001.8,N
1518243315.5,286047001.7,N
1518243335.3,286047001.7,N
1518243355.1,286047001.7,N
1518243375.9,286047002.7,Y
1518243395.7,286047001.2,P
1518243415.5,286047000.6,N
1518243435.4,286047000.9,N
1518243455.2,286047000.6,N
1518243475.1,286047000.5,N
1518243476.0,286047000.5,N
1518243495.8,286047000.6,N
1518243515.6,286047000.5,N
1518243535.5,286047000.5,N
1518243555.3,286047000.8,N
1518243575.1,286047000.5,N
1518243595.8,286047000.8,N
1518243615.7,286047000.8,N
1518243635.5,286047000.7,N
1518243655.3,286047001.0,N
1518243675.2,286047000.0,N
1518243695.9,286047001.0,N
1518243715.7,286047000.0,N
1518243735.6,286047000.6,N
1518243755.4,286047001.0,N
1518243775.2,286046999.9,N
1518243795.1,286047000.0,N
1518243796.0,286047000.0,N
1518243815.8,286047001.0,N
1518243835.6,286046999.9,N
1518243855.5,286047000.3,N
1518243875.3,286047000.3,N
1518243895.1,286047000.3,N
1518243915.8,286047000.0,N
1518243935.7,286047001.0,N
1518243955.5,286047000.0,N
1518243975.3,286047000.0,N
1518243995.2,286047000.0,N
1518244015.9,286047000.0,N
1518244035.7,286047000.9,N
1518244055.6,286047001.0,N
1518244075.4,286046999.9,N
1518244095.2,286047000.0,N
1518244115.1,286046999.9,N
1518244116.0,286046999.9,N
1518244135.8,286047000.7,N
1518244155.6,286047000.3,N
1518244175.5,286047001.0,N
1518244195.3,286047000.2,N
1518244215.1,286046999.9,N
1518244235.8,286047001.0,N
1518244255.7,286046999.9,N
1518244275.5,286047001.0,N
1518244295.3,286047001.0,N
1518244315.2,286046999.9,N
1518244335.0,286046999.9,N
1518244335.9,286046999.9,N
1518244355.7,286047000.2,N
1518244375.6,286047002.7,Y
1518244395.4,286047000.7,P
1518244415.2,286047000.4,N
1518244435.1,286047000.4,N
1518244436.0,286047000.4,N
1518244455.8,286047000.8,Y
1518244475.6,286047001.1,P
1518244495.5,286046998.3,P
1518244515.3,286046998.6,N
1518244535.1,286047000.8,N
1518244555.9,286047001.1,N
1518244575.7,286047000.8,N
1518244595.5,286047000.8,N
1518244615.4,286047001.1,N
1518244635.2,286047001.2,N
1518244655.0,286046998.4,N
1518244655.9,286046998.4,N
1518244675.8,286046998.1,N
1518244695.6,286046998.1,N
1518244715.4,286046998.2,N
1518244735.3,286046998.8,N
1518244755.1,286046998.5,N
1518244756.0,286046998.5,N
1518244775.8,286046998.6,N
1518244795.6,286046998.2,N
1518244815.5,286046998.2,N
1518244835.3,286046998.2,N
1518244855.1,286046998.8,N
1518244875.9,286046998.8,N
1518244895.7,286046998.5,N
1518244915.5,286046998.6,N
1518244935.4,286046998.6,N
1518244955.2,286046998.3,N
1518244975.0,286046998.4,N
1518244975.9,286046998.4,N
1518244995.8,286046998.3,N
1518245015.6,286046998.3,N
1518245035.4,286047001.1,N
1518245055.3,286047001.2,N
1518245075.1,286047001.2,N
1518245076.0,286047001.2,N
1518245095.8,286046998.1,N
1518245115.7,286046998.4,N
1518245135.5,286046998.1,N
1518245155.3,286046998.7,N
1518245175.2,286047001.2,N
1518245195.9,286047001.1,N
1518245215.7,286046998.6,N
1518245235.5,286046998.6,N
1518245255.4,286046998.5,N
1518245275.2,286046998.6,N
1518245295.0,286046998.9,N
1518245295.9,286046998.9,N
1518245315.8,286046998.2,N
1518245335.6,286046998.1,N
1518245355.4,286046998.4,N
1518245375.8,286047000.8,N
1518245395.6,286047001.1,N
1518245415.5,286047000.8,N
1518245435.3,286047000.7,N
1518245455.1,286046998.2,N
1518245475.9,286046998.5,N
1518245495.7,286047000.7,N
1518245515.5,286047000.8,N
1518245535.3,286046998.2,N
1518245555.2,286047001.0,N
1518245575.0,286047000.4,N
1518245575.9,286047000.4,N
1518245595.7,286047000.4,N
1518245615.6,286047000.7,N
1518245635.4,286047000.7,N
1518245655.2,286047000.4,N
1518245675.1,286047000.7,N
1518245676.0,286047000.7,N
1518245695.8,286047000.8,N
1518245715.6,286047000.8,N
1518245735.5,286047000.8,N
1518245755.3,286046998.5,N
1518245775.1,286046998.5,N
1518245795.9,286047000.8,N
1518245815.7,286047000.8,N
1518245835.5,286047000.8,N
1518245855.4,286047000.5,N
1518245875.2,286047000.7,N
1518245895.0,286047000.3,N
1518245895.9,286047000.3,N
1518245915.8,286047001.0,N
1518245935.6,286047000.3,N
1518245955.4,286047000.3,N
1518245975.2,286047000.7,N
1518245995.1,286047000.3,N
1518245996.0,286047000.3,N
